This is the latest recevied weather packets stored in our database for station/object OK3MS-5. If no packets are shown the sender has not sent any weather packets the latest 10 day(s).
| Time | Temp. | Humidity | Pressure | Rain* | Wind** | Luminosity | Snow |
|---|---|---|---|---|---|---|---|
| 1777805703 | 22.78° C | 32% | 1013.7 hPa | 0 mm | - | 758 W/m² | - |
| 1777805403 | 22.22° C | 34% | 1013.9 hPa | 0 mm | - | 748 W/m² | - |
| 1777805104 | 21.67° C | 37% | 1013.9 hPa | 0 mm | - | 752 W/m² | - |
| 1777804806 | 21.67° C | 37% | 1013.9 hPa | 0 mm | - | 746 W/m² | - |
| 1777804503 | 21.67° C | 38% | 1013.9 hPa | 0 mm | - | 744 W/m² | - |
| 1777804201 | 21.67° C | 37% | 1014.2 hPa | 0 mm | - | 740 W/m² | - |
| 1777803902 | 21.67° C | 37% | 1014.2 hPa | 0 mm | - | 740 W/m² | - |
| 1777803602 | 21.67° C | 38% | 1014.2 hPa | 0 mm | - | 733 W/m² | - |
| 1777803304 | 21.67° C | 39% | 1014.4 hPa | 0 mm | - | 730 W/m² | - |
| 1777803004 | 21.67° C | 39% | 1014.4 hPa | 0 mm | - | 722 W/m² | - |
| 1777802706 | 21.67° C | 40% | 1014.6 hPa | 0 mm | - | 720 W/m² | - |
| 1777802405 | 21.11° C | 39% | 1014.6 hPa | 0 mm | - | 714 W/m² | - |
| 1777802102 | 21.11° C | 40% | 1014.6 hPa | 0 mm | - | 710 W/m² | - |
| 1777801804 | 21.67° C | 38% | 1014.6 hPa | 0 mm | - | 706 W/m² | - |
| 1777801504 | 21.67° C | 41% | 1014.5 hPa | 0 mm | - | 698 W/m² | - |
| 1777801203 | 21.11° C | 41% | 1014.7 hPa | 0 mm | - | 694 W/m² | - |
| 1777800910 | 20.56° C | 42% | 1014.8 hPa | 0 mm | - | 692 W/m² | - |
| 1777800602 | 20.56° C | 41% | 1014.8 hPa | 0 mm | - | 683 W/m² | - |
| 1777800305 | 20.56° C | 41% | 1015 hPa | 0 mm | - | 679 W/m² | - |
| 1777800003 | 20° C | 43% | 1015 hPa | 0 mm | - | 670 W/m² | - |
| 1777799702 | 20° C | 42% | 1015.1 hPa | 0 mm | - | 665 W/m² | - |
| 1777799404 | 19.44° C | 43% | 1015.2 hPa | 0 mm | - | 658 W/m² | - |
| 1777799103 | 19.44° C | 43% | 1015.3 hPa | 0 mm | - | 653 W/m² | - |
| 1777798804 | 19.44° C | 43% | 1015.3 hPa | 0 mm | - | 646 W/m² | - |
| 1777798503 | 19.44° C | 43% | 1015.2 hPa | 0 mm | - | 639 W/m² | - |
* Rain latest hour (hover to see other rain measurements)
** Current wind speed in m/s (hover to see current wind gust speed)